Weather History for KTYQ - September, 2013

Change the Weather History Date:

Thursday, September 12, 2013

  Actual Average (KEYE) Record (KEYE)
Temperature  
Mean Temperature 72 °F 69 °F  
Max Temperature 83 °F 79 °F 88 °F (1999)
Min Temperature 61 °F 59 °F 51 °F (1997)
Degree Days  
Heating Degree Days 0 1  
Month to date heating degree days 4  
Since 1 July heating degree days 7  
Cooling Degree Days 8 5  
Month to date cooling degree days 75  
Year to date cooling degree days 995  
Growing Degree Days 22 (Base 50)    
Moisture  
Dew Point 61 °F    
Average Humidity 69    
Maximum Humidity 89    
Minimum Humidity 32    
Precipitation  
Precipitation 0.31 in 0.08 in 0.69 in (2006)
Month to date precipitation 0.88  
Year to date precipitation 29.53  
Sea Level Pressure  
Sea Level Pressure 30.00 in    
Wind  
Wind Speed 4 mph (WNW)    
Max Wind Speed 18 mph    
Max Gust Speed 25 mph    
Visibility 9 miles    
Events Rain , Thunderstorm    
T = Trace of Precipitation, MM = Missing Value Source: NWS Daily Summary

Daily Weather History Graph

Daily Weather History Graph

Search for Another Location

Airport or City:

Trip Planner

Search our weather history database for the weather conditions in past years. The results will help you decide how hot, cold, wet, or windy it might be!

Date:

Astronomy

Sep. 12, 2013 Rise Set
Actual Time 7:23 AM EDT 7:58 PM EDT
Civil Twilight 6:56 AM EDT 8:25 PM EDT
Nautical Twilight 6:23 AM EDT 8:57 PM EDT
Astronomical Twilight 5:50 AM EDT 9:30 PM EDT
Moon 2:50 PM EDT (9/12) No Moon Set
Length of Visible Light 13h 29m
Length of Day
12h 34m
Waxing Crescent, 50% of the Moon is Illuminated
Sep 12
Waxing Crescent
Sep 12
First Quarter
Sep 19
Full
Sep 26
Last Quarter
Oct 4
New

Hourly Weather History & Observations

Time (EDT) Temp. Heat Index Dew Point Humidity Pressure Visibility Wind Dir Wind Speed Gust Speed Precip Events Conditions
12:15 AM 75.4 °F - 62.1 °F 63% 30.04 in 10.0 mi WNW 3.5 mph - N/A   Clear
12:35 AM 73.8 °F - 62.2 °F 67% 30.04 in 10.0 mi WSW 3.5 mph - N/A   Clear
12:55 AM 71.8 °F - 62.6 °F 73% 30.04 in 10.0 mi Calm Calm - N/A   Clear
1:15 AM 69.1 °F - 62.6 °F 80% 30.03 in 10.0 mi Calm Calm - N/A   Clear
1:35 AM 68.7 °F - 62.8 °F 81% 30.04 in 10.0 mi Calm Calm - N/A   Clear
1:55 AM 68.9 °F - 62.8 °F 81% 30.03 in 10.0 mi Calm Calm - N/A   Scattered Clouds
2:15 AM 68.4 °F - 62.8 °F 82% 30.03 in 10.0 mi Calm Calm - N/A   Scattered Clouds
2:35 AM 68.4 °F - 62.8 °F 82% 30.04 in 10.0 mi Calm Calm - N/A   Clear
2:55 AM 69.1 °F - 63.5 °F 82% 30.03 in 10.0 mi SSW 3.5 mph - N/A   Clear
3:15 AM 69.4 °F - 63.3 °F 81% 30.03 in 10.0 mi NW 4.6 mph - N/A   Clear
3:35 AM 72.0 °F - 63.0 °F 73% 30.02 in 10.0 mi Calm Calm - N/A   Mostly Cloudy
3:55 AM 71.1 °F - 63.5 °F 77% 29.99 in 10.0 mi Calm Calm - N/A   Overcast
4:15 AM 71.1 °F - 63.5 °F 77% 29.99 in 10.0 mi Calm Calm - N/A   Mostly Cloudy
4:35 AM 71.4 °F - 63.5 °F 76% 30.00 in 10.0 mi Calm Calm - N/A   Mostly Cloudy
4:55 AM 71.6 °F - 63.5 °F 76% 30.01 in 10.0 mi NNW 3.5 mph - N/A   Overcast
5:15 AM 71.1 °F - 63.7 °F 77% 30.01 in 10.0 mi Calm Calm - N/A   Mostly Cloudy
5:35 AM 70.3 °F - 64.2 °F 81% 29.99 in 10.0 mi Calm Calm - N/A   Scattered Clouds
5:55 AM 69.8 °F - 64.8 °F 84% 30.01 in 10.0 mi Calm Calm - N/A Thunderstorm Mostly Cloudy
6:15 AM 69.4 °F - 65.3 °F 87% 30.01 in 1.2 mi Calm Calm - 0.23 in Rain , Thunderstorm Heavy Thunderstorms and Rain
6:35 AM 69.4 °F - 65.7 °F 88% 30.01 in 4.0 mi Calm Calm - 0.28 in Rain Light Rain
6:55 AM 69.8 °F - 66.2 °F 88% 30.02 in 5.0 mi Calm Calm - 0.28 in   Overcast
7:15 AM 70.0 °F - 66.6 °F 89% 30.03 in 5.0 mi West 3.5 mph - 0.02 in Rain Heavy Rain
7:35 AM 69.8 °F - 66.2 °F 88% 30.02 in 7.0 mi Calm Calm - 0.03 in   Mostly Cloudy
7:55 AM 69.8 °F - 66.2 °F 88% 30.02 in 5.0 mi Calm Calm - 0.03 in   Mostly Cloudy
8:15 AM 70.0 °F - 66.4 °F 88% 30.01 in 5.0 mi Calm Calm - N/A   Scattered Clouds
8:35 AM 70.0 °F - 66.4 °F 88% 30.01 in 5.0 mi Calm Calm - N/A Rain Light Rain
8:55 AM 70.3 °F - 66.7 °F 88% 30.02 in 5.0 mi WSW 4.6 mph - N/A   Overcast
9:15 AM 70.3 °F - 66.7 °F 88% 30.03 in 5.0 mi West 4.6 mph - N/A   Overcast
9:35 AM 70.9 °F - 67.3 °F 88% 30.04 in 5.0 mi WSW 4.6 mph - N/A   Overcast
9:55 AM 71.1 °F - 67.5 °F 88% 30.04 in 5.0 mi SW 5.8 mph - N/A   Overcast
10:15 AM 71.1 °F - 67.3 °F 88% 30.04 in 7.0 mi SW 5.8 mph - N/A   Overcast
10:35 AM 71.4 °F - 67.3 °F 87% 30.03 in 7.0 mi WSW 6.9 mph - N/A   Overcast
10:55 AM 71.4 °F - 67.3 °F 87% 30.04 in 7.0 mi West 4.6 mph - N/A   Overcast
11:15 AM 71.6 °F - 67.3 °F 86% 30.04 in 7.0 mi West 5.8 mph - N/A   Overcast
11:35 AM 72.1 °F - 67.6 °F 86% 30.04 in 10.0 mi West 6.9 mph - N/A   Overcast
11:55 AM 72.5 °F - 67.1 °F 83% 30.04 in 10.0 mi West 5.8 mph - N/A   Overcast
12:15 PM 73.0 °F - 67.5 °F 83% 30.01 in 10.0 mi SW 4.6 mph - N/A   Overcast
12:35 PM 73.0 °F - 66.9 °F 81% 30.02 in 10.0 mi West 5.8 mph - N/A   Scattered Clouds
12:55 PM 73.8 °F - 67.1 °F 80% 30.02 in 10.0 mi WNW 8.1 mph - N/A   Scattered Clouds
1:15 PM 74.3 °F - 67.1 °F 78% 30.02 in 10.0 mi West 8.1 mph - N/A   Mostly Cloudy
1:35 PM 75.6 °F - 66.4 °F 73% 30.01 in 10.0 mi West 10.4 mph - N/A   Mostly Cloudy
1:55 PM 77.0 °F - 66.7 °F 70% 30.00 in 10.0 mi West 6.9 mph - N/A   Scattered Clouds
2:15 PM 77.0 °F - 65.1 °F 67% 29.99 in 10.0 mi WNW 5.8 mph - N/A   Scattered Clouds
2:35 PM 78.1 °F - 64.9 °F 64% 29.99 in 10.0 mi NW 4.6 mph - N/A   Scattered Clouds
2:55 PM 78.8 °F - 65.3 °F 63% 29.98 in 10.0 mi WNW 5.8 mph - N/A   Scattered Clouds
3:15 PM 80.1 °F 81.7 °F 64.0 °F 58% 29.97 in 10.0 mi West 5.8 mph - N/A   Clear
3:35 PM 81.1 °F 82.1 °F 62.2 °F 52% 29.96 in 10.0 mi WNW 8.1 mph - N/A   Scattered Clouds
3:55 PM 81.3 °F 81.7 °F 59.4 °F 47% 29.95 in 10.0 mi WNW 6.9 mph - N/A   Scattered Clouds
4:15 PM 82.0 °F 82.1 °F 58.8 °F 45% 29.94 in 10.0 mi West 6.9 mph 17.3 mph N/A   Scattered Clouds
4:35 PM 82.6 °F 82.2 °F 57.0 °F 42% 29.94 in 10.0 mi WNW 8.1 mph - N/A   Scattered Clouds
4:55 PM 83.1 °F 82.4 °F 56.3 °F 40% 29.93 in 10.0 mi WNW 8.1 mph - N/A   Scattered Clouds
5:15 PM 82.4 °F 81.7 °F 55.2 °F 39% 29.92 in 10.0 mi West 9.2 mph 17.3 mph N/A   Scattered Clouds
5:35 PM 82.8 °F 81.9 °F 54.5 °F 38% 29.91 in 10.0 mi West 9.2 mph 17.3 mph N/A   Scattered Clouds
5:55 PM 82.4 °F 81.7 °F 55.2 °F 39% 29.91 in 10.0 mi West 12.7 mph 19.6 mph N/A   Scattered Clouds
6:15 PM 80.6 °F 80.4 °F 54.9 °F 41% 29.90 in 10.0 mi WNW 10.4 mph 16.1 mph N/A   Mostly Cloudy
6:35 PM 79.0 °F - 56.3 °F 46% 29.91 in 10.0 mi NW 4.6 mph - N/A   Mostly Cloudy
6:55 PM 79.7 °F - 57.0 °F 46% 29.91 in 10.0 mi WNW 6.9 mph - N/A   Scattered Clouds
7:15 PM 79.5 °F - 54.3 °F 42% 29.91 in 10.0 mi NW 16.1 mph 25.3 mph N/A   Scattered Clouds
7:35 PM 77.2 °F - 47.5 °F 35% 29.93 in 10.0 mi NW 18.4 mph 24.2 mph N/A   Scattered Clouds
7:55 PM 75.4 °F - 43.9 °F 32% 29.94 in 10.0 mi NW 13.8 mph 19.6 mph N/A   Scattered Clouds
8:15 PM 73.8 °F - 45.1 °F 36% 29.94 in 10.0 mi NW 6.9 mph - N/A   Clear
8:35 PM 72.1 °F - 46.4 °F 40% 29.95 in 10.0 mi NW 9.2 mph - N/A   Clear
8:55 PM 71.2 °F - 46.8 °F 42% 29.96 in 10.0 mi NW 11.5 mph 17.3 mph N/A   Clear
9:15 PM 70.7 °F - 52.5 °F 52% 29.98 in 10.0 mi NNW 13.8 mph 21.9 mph N/A   Clear
9:35 PM 69.1 °F - 54.1 °F 59% 29.98 in 10.0 mi NNW 10.4 mph - N/A   Clear
9:55 PM 67.6 °F - 54.5 °F 63% 29.99 in 10.0 mi NNW 12.7 mph 21.9 mph N/A   Clear
10:15 PM 66.6 °F - 53.6 °F 63% 29.99 in 10.0 mi NNW 9.2 mph 16.1 mph N/A   Clear
10:35 PM 65.3 °F - 53.2 °F 65% 30.00 in 10.0 mi NNW 9.2 mph - N/A   Clear
10:55 PM 64.4 °F - 53.1 °F 67% 30.01 in 10.0 mi North 9.2 mph - N/A   Clear
11:15 PM 63.7 °F - 52.7 °F 67% 30.01 in 10.0 mi North 8.1 mph - N/A   Clear
11:35 PM 62.6 °F - 52.7 °F 70% 30.02 in 10.0 mi NNW 6.9 mph - N/A   Clear
11:55 PM 61.9 °F - 52.7 °F 72% 30.02 in 10.0 mi NNW 9.2 mph - N/A   Clear